STARLINK-33831, 63595

Orbit data source: Space-Track

STARLINK-33831, 63595 is a payload satellite owned by SpaceX/Seattle (US) in LEO that was launched on Mon, 14 Apr 2025 UTC via an FALCON 9 launch vehicle from the Air Force Eastern Test Range (AFETR). Payload-class satellites include a variety of spacecraft equipped with specific instruments for various scientific and technological missions. These include communications satellites like Starlink; space stations such as the ISS; scientific satellites like the Hubble; Earth observation satellites from companies like Planet Labs, Umbra, and HawkEye 360; GPS; miniature CubeSats for education and research; and military/defense satellites.

Loading next visibility...
Identifier
63595, 2025-076AC
Orbit
LEO
Last TLE update
16 hours ago
Origin
Manufacturer
SpaceX/Seattle
Mission
Operational Commercial Communications
Bus & Motor
STARLINK V2MO, Unknown motor
Mass
575 kg wet, ~530 kg dry
Launch date (UTC)
2025-04-14 (3 months ago)
Launch vehicle
FALCON 9
Launch site
Air Force Eastern Test Range (AFETR)
Object type
Payload
Rocket body
Debris
Shape & HBR
Box + 1 Pan, 29 m
Radar Cross Section
41.120 m², Large (>1 m²)

Expand to show TLE details & history

TLE from 16 hours ago
0 STARLINK-33831
1 63595U 25076AC  25181.76885516  .00012515  00000-0  46328-3 0  9991
2 63595  42.9979 304.2299 0001358 258.2638 101.8061 15.27597533 13301
Epoch: 2025-06-30T18:27Z
TLE epoch observation values (Epoch: 2025-06-30T18:27:09.085Z)
Latitude
-0.00005°
Longitude
108.36807°
Altitude
482.963 km
Speed
7.626 km/s
True Right ascension
20h 16m 55s
True Declination
0° 00' 00"
Sunlit
Object was in full shadow at epoch
Visualization orbit readout
Latitude
-1.41063°
Longitude
103.17075°
Altitude
483.005 km
Speed
7.626 km/s
Apparent Right ascension
17h 07m 59s
Apparent Declination
-51° 20' 44"
Sunlit
Object is in full shadow
Visualization observer readout
Local Sidereal Time
21:46:33
Azimuth
218.417° SW
Elevation
-19.538°
Doppler factor
1
Orbital elements
Apogee altitude
485.874 km
Perigee altitude
484.01 km
Semi-major axis
6,863.079 km
Eccentricity
0.00014
Inclination
42.9979°
RAAN
304.2299°
Arg. of periapsis
258.2638°
True anomaly
Unknown
Mean anomaly
101.8061°
Eccentric anomaly
Unknown
Mean motion
3.81737 °/min
Orbital period
94.31 mins
BSTAR
0.00046328
Loading maneuver chart data...
Loading SW <> Apogee altitude chart data...
Loading historical data...
Loading historical data...
Loading historical data...
Loading historical data...
Loading historical data...
Loading historical data...
Loading historical data...

STARLINK-33831 Visibility forecast

Observer location: undefined°, undefined°

Span
Click to sort rows by Start time (UTC) header in descending order
Start Az.
Max El. time (UTC)
Max El. Az.
Max El.
End time (UTC)
End Az.
5 mins2025-07-01 11:57:09.523Z228.822° WSW2025-07-01 11:59:09.523Z178.624° S39.695°2025-07-01 12:02:09.523Z79.597° E
5 mins2025-07-01 13:36:09.523Z279.816° WNW2025-07-01 13:38:09.523Z331.17° NNW39.041°2025-07-01 13:41:09.523Z68.097° E
6 mins2025-07-01 15:15:09.523Z293.331° NW2025-07-01 15:18:09.523Z50.889° ENE39.239°2025-07-01 15:21:09.523Z91.839° ESE
5 mins2025-07-01 16:54:09.523Z273.377° WNW2025-07-01 16:56:09.523Z228.536° WSW34.202°2025-07-01 16:59:09.523Z140.083° SSE
|